Flag for Argentina Weather past 2 weeks in Salta, Salta, Argentina

Now
82 °F

Passing clouds.


Feels Like: 83 °F
Forecast: N/A
Wind: 8 mph from Northeast

Location: Salta Aerodrome

Current Time: Dec 20, 2014 at 8:58:10 PM

Latest Report: Dec 20, 2014 at 8:00 PM


Visibility: N/A

Pressure: 29.86 "Hg

Humidity: 51%

Dew point: 63 °F

Location of SaltaLocation

Historic Weather in Salta — Graph

°F

Salta temperature yesterday

Maximum temperature yesterday: 81 °F (at 4:00 PM)
Minimum temperature yesterday: 59 °F (at 6:00 AM)
Average temperature yesterday: 70 °F

Past Weeks' High & Low Weather Summary

 TemperatureHumidityPressure
High93 °F (Dec 6, 3:00 PM)100% (Dec 11, 3:00 AM)30.15 "Hg (Dec 11, 3:00 AM)
Low59 °F (Dec 6, 7:00 AM)16% (Dec 6, 4:00 PM)29.53 "Hg (Dec 20, 6:00 PM)
Average71 °F73%29.96 "Hg
* Reported Dec 5 8:00 PM — Dec 20 8:00 PM, Salta, Weather by CustomWeather, © 2014

Note: Actual official high and low records may vary slightly from our data, if they occured in-between our weather recording intervals... More about our weather records

Advertising

Salta weather history for previous 24 hours

 ConditionsComfort  
Time TempWeatherWind HumidityBarometerVisibility
8:00 PM
Dec 20
82 °FPassing clouds.8 mph51%29.86 "HgN/A
7:00 PM86 °FPassing clouds.13 mph43%29.53 "HgN/A
6:00 PM88 °FScattered clouds.12 mph40%29.53 "HgN/A
5:00 PM88 °FScattered clouds.13 mph43%29.56 "HgN/A
4:00 PM88 °FScattered clouds.8 mph40%29.56 "HgN/A
3:00 PM90 °FPassing clouds.8 mph41%29.59 "HgN/A
2:00 PM86 °FPassing clouds.7 mph46%29.62 "HgN/A
1:00 PM84 °FPassing clouds.2 mph48%29.65 "HgN/A
12:00 PM81 °FSunny.2 mph54%29.68 "Hg10 mi
11:00 AM77 °FPassing clouds.3 mph65%29.71 "HgN/A
10:00 AM73 °FPassing clouds.No wind74%29.71 "HgN/A
9:00 AM72 °FPassing clouds.No wind78%29.74 "HgN/A
8:00 AM64 °FPassing clouds.No wind94%29.74 "HgN/A
7:00 AM61 °FPassing clouds.No wind100%29.71 "HgN/A
6:00 AM63 °FScattered clouds.No wind94%29.71 "HgN/A
5:00 AM64 °FPassing clouds.No wind88%29.71 "HgN/A
4:00 AM63 °FPassing clouds.2 mph94%29.71 "HgN/A
3:00 AM64 °FPassing clouds.No wind94%29.74 "HgN/A
2:00 AM66 °FClear.No wind88%29.77 "Hg10 mi
1:00 AM66 °FClear.No wind88%29.80 "Hg10 mi
12:00 AM70 °FClear.6 mph83%29.80 "Hg10 mi
11:00 PM
Dec 19
72 °FClear.No wind78%29.80 "Hg10 mi
10:00 PM73 °FClear.2 mph74%29.80 "Hg10 mi
9:00 PM75 °FPartly cloudy.8 mph69%29.77 "HgN/A
8:00 PM77 °FPartly cloudy.10 mph57%29.74 "HgN/A
Weather by CustomWeather, © 2014

See weather overviewHow to use our weather pages